Ouarzazate, Morocco

1:41 PM WET on January 20, 2018 (GMT +0000)
Ouarzazate

Weather History for GMMZ - April, 2014

Change the Weather History Date:

Sunday, April 20, 2014

  Actual Average Record
Temperature  
Mean Temperature 70 °F -  
Max Temperature 80 °F 82 °F - ()
Min Temperature 59 °F 55 °F - ()
Cooling Degree Days 4    
Growing Degree Days 20 (Base 50)    
Moisture  
Dew Point 28 °F    
Average Humidity 23    
Maximum Humidity 42    
Minimum Humidity 4    
Precipitation  
Precipitation 0.00 in 0.01 in - ()
Sea Level Pressure  
Sea Level Pressure 29.81 in    
Wind  
Wind Speed 10 mph ()    
Max Wind Speed 24 mph    
Max Gust Speed -    
Visibility 9.4 miles    
Events      
T = Trace of Precipitation, MM = Missing Value Source: Averaged Metar Reports

Daily Weather History Graph

Daily Weather History Graph

Search for Another Location

Airport or City:

Trip Planner

Search our weather history database for the weather conditions in past years. The results will help you decide how hot, cold, wet, or windy it might be!

Date:

Astronomy

Apr. 20, 2014 Rise Set
Actual Time 6:54 AM WEST 7:58 PM WEST
Civil Twilight 6:29 AM WEST 8:24 PM WEST
Nautical Twilight 5:59 AM WEST 8:53 PM WEST
Astronomical Twilight 5:29 AM WEST 9:24 PM WEST
Moon 12:18 AM WEST 11:08 AM WEST
Length of Visible Light 13h 54m
Length of Day
13h 04m
Waning Gibbous, 71% of the Moon is Illuminated
Apr 20
Waning Gibbous
Apr 22
Last Quarter
Apr 29
New
May 7
First Quarter
May 14
Full

Hourly Weather History & Observations

Time (WEST) Temp. Dew Point Humidity Pressure Visibility Wind Dir Wind Speed Gust Speed Precip Events Conditions
12:00 AM 64.4 °F 41.0 °F 42% 29.89 in - WSW 17.3 mph - N/A   Clear
1:00 AM 64 °F 41 °F 31%  in 12 mi WSW 12.7 mph - -   Scattered Clouds
1:00 AM 64.4 °F 41.0 °F 42% 29.86 in - WSW 16.1 mph - N/A   Clear
2:00 AM 64.4 °F 39.2 °F 40% 29.86 in - SW 5.8 mph - N/A   Clear
3:00 AM 62.6 °F 37.4 °F 39% 29.83 in - Variable 3.5 mph - N/A   Clear
4:00 AM 61 °F 37 °F 30%  in - West 12.7 mph - -  
5:00 AM 60.8 °F 35.6 °F 39% 29.80 in - Variable 2.3 mph - N/A   Clear
6:00 AM 60.8 °F 33.8 °F 36% 29.80 in - WSW 6.9 mph - N/A   Clear
7:00 AM 60 °F 34 °F 26%  in 12 mi WSW 9.2 mph - -   Clear
7:00 AM 60.8 °F 33.8 °F 36% 29.80 in - WSW 6.9 mph - N/A   Clear
8:00 AM 59.0 °F 32.0 °F 36% 29.83 in - WSW 11.5 mph - N/A   Clear
9:00 AM 60.8 °F 32.0 °F 34% 29.83 in - WSW 10.4 mph - N/A   Clear
10:00 AM 65 °F 24 °F 12%  in 12 mi WSW 12.7 mph - -   Scattered Clouds
10:00 AM 66.2 °F 23.0 °F 19% 29.83 in - WSW 13.8 mph - N/A   Clear
11:00 AM 68.0 °F 21.2 °F 17% 29.83 in - WSW 9.2 mph - N/A   Clear
12:00 PM 71.6 °F 21.2 °F 15% 29.83 in - West 4.6 mph - N/A   Clear
1:00 PM 74 °F 16 °F 5%  in 12 mi SW 2.3 mph - -   Clear
1:00 PM 75.2 °F 15.8 °F 11% 29.83 in - Variable 2.3 mph - N/A   Clear
2:00 PM 77.0 °F 14.0 °F 9% 29.80 in - Variable 5.8 mph - N/A   Clear
3:00 PM 77.0 °F 14.0 °F 9% 29.77 in - NW 4.6 mph - N/A   Clear
4:00 PM 81 °F 14 °F 4%  in 12 mi Calm Calm - -   Clear
4:00 PM 80.6 °F 14.0 °F 8% 29.74 in - Variable 3.5 mph - N/A   Clear
5:00 PM 80.6 °F 14.0 °F 8% 29.74 in 6.2 mi Variable 1.2 mph - N/A   Mostly Cloudy
6:00 PM 75.2 °F 24.8 °F 15% 29.74 in 6.2 mi WNW 24.2 mph - N/A   Mostly Cloudy
7:00 PM 72 °F 26 °F 9%  in 12 mi West 23.0 mph - -   Scattered Clouds
7:00 PM 71.6 °F 26.6 °F 19% 29.77 in 6.2 mi West 21.9 mph - N/A   Mostly Cloudy
8:00 PM 69.8 °F 28.4 °F 21% 29.80 in 6.2 mi West 18.4 mph - N/A   Mostly Cloudy
9:00 PM 66.2 °F 30.2 °F 26% 29.83 in 6.2 mi West 20.7 mph - N/A   Mostly Cloudy
10:00 PM 64 °F 31 °F 18%  in - West 20.7 mph - -  
10:00 PM 64.4 °F 32.0 °F 30% 29.83 in - West 21.9 mph - N/A   Clear
11:00 PM 60.8 °F 37.4 °F 42% 29.83 in - WSW 17.3 mph - N/A   Clear